Location: Argonnex
(45.9500°N, 6.1333°E)
Time: 09:01:09
(UTC+00:00)

Cosmos 2266 Rocket - Pass Details

Date: 02 October 2023
Orbit: 933 x 1008 km, 82.9° (Epoch: 10 December)

Event Time Altitude Azimuth Distance (km) Brightness Sun altitude
Exits shadow 01:20:58 27° 77° (ENE) 1,838 5.7 -40.5°
Drops below altitude 10° 01:25:44 10° 30° (NNE) 2,790 7.0 -40.0°
Sets 01:28:40 0° 18° (NNE) 3,749 7.8 -39.7°
